map of BHK home
BHK - Airport
Location
City:  Bukhara, Buxoro, Uzbekistan
Name:Bukhara International Airport
ICAO:UTSB
IATA:BHK

Details
Type:Airport (Aerodrome, Airfield)
Use:Public/Civil, International (customs port of entry)
Latitude:3946'30"N (39.775000)
Longitude:6429'00"E (64.483333)
Elevation:751 ft (229 m)
Variation:5.35E (WMM2015v2 magnetic declination)
0.06 annual change
Runways:1
Longest:9843 × 147 ft (3000 × 45 m), paved

Time
Time Zone:UTC+5
Local Time:

Weather
METAR:UTSB 041400Z 35020KT CAVOK 09/03 Q1019 R01/CLRD70 NOSIG
TAF:UTSB 041100Z 0412/0512 VRB05KT 7000 FEW010 SCT040CB
TEMPO 0412/0417 36016G26KT 4000 -SHRA BR SCT006 OVC025CB
TEMPO 0417/0424 34012G22KT 2500 -SHSNRA BR BKN006 OVC020CB

Related Locations
Nearby:
Farthest:IPC: 11495 mi / 18499 km
Easter Island (Isla de Pascua, Rapa Nui) [Mataveri Intl], VS, CL

Find:

   beyond  
but within

Other Information
Maps:
NOTAMs:
Links:
Sources:

  
  • flag of Uzbekistan
  

Sectional Chart

Flight Planning
at skyvector.com

Satellite Image

Google Maps Satellite view

 

Copyright © 2004-2019 Karl L. Swartz. All rights reserved.
The Great Circle Mapper name and logo are trademarks of the Great Circle Mapper.
All other trademarks mentioned herein belong to their respective owners.
Please see credits for attibutions and further copyright information.

  Follow gcmap on Facebook Follow gcmap on Twitter GCmap on LinkedIn

hCard Microformat

Geo Microformat